Year,Month,Day,Hour,Minute,Value (Times are PST for temperature in C)
2011,08,10,00,00,12.40
2011,08,10,00,01,12.40
2011,08,10,00,02,12.40
2011,08,10,00,03,12.40
2011,08,10,00,04,12.40
2011,08,10,00,05,12.40
2011,08,10,00,06,12.40
2011,08,10,00,07,12.40
2011,08,10,00,08,12.40
2011,08,10,00,09,12.30
2011,08,10,00,10,12.30
2011,08,10,00,11,12.30
2011,08,10,00,12,12.30
2011,08,10,00,13,12.30
2011,08,10,00,14,12.30
2011,08,10,00,15,12.30
2011,08,10,00,16,12.30
2011,08,10,00,17,12.20
2011,08,10,00,18,12.20
2011,08,10,00,19,12.20
2011,08,10,00,20,12.10
2011,08,10,00,21,12.10
2011,08,10,00,22,12.10
2011,08,10,00,23,12.10
2011,08,10,00,24,12.10
2011,08,10,00,25,12.10
2011,08,10,00,26,12.10
2011,08,10,00,27,12.10
2011,08,10,00,28,12.10
2011,08,10,00,29,12.00
2011,08,10,00,30,12.00
2011,08,10,00,31,12.00
2011,08,10,00,32,12.00
2011,08,10,00,33,12.00
2011,08,10,00,34,11.90
2011,08,10,00,35,11.90
2011,08,10,00,36,11.90
2011,08,10,00,37,11.90
2011,08,10,00,38,11.80
2011,08,10,00,39,11.80
2011,08,10,00,40,11.80
2011,08,10,00,41,11.80
2011,08,10,00,42,11.80
2011,08,10,00,43,11.80
2011,08,10,00,44,11.80
2011,08,10,00,45,11.80
2011,08,10,00,46,11.80
2011,08,10,00,47,11.80
2011,08,10,00,48,11.80
2011,08,10,00,49,11.70
2011,08,10,00,50,11.70
2011,08,10,00,51,11.70
2011,08,10,00,52,11.70
2011,08,10,00,53,11.70
2011,08,10,00,54,11.60
2011,08,10,00,55,11.60
2011,08,10,00,56,11.60
2011,08,10,00,57,11.60
2011,08,10,00,58,11.60
2011,08,10,00,59,11.60
2011,08,10,01,00,11.60
2011,08,10,01,01,11.60
2011,08,10,01,02,11.60
2011,08,10,01,03,11.60
2011,08,10,01,04,11.60
2011,08,10,01,05,11.40
2011,08,10,01,06,11.40
2011,08,10,01,07,11.40
2011,08,10,01,08,11.40
2011,08,10,01,09,11.40
2011,08,10,01,10,11.40
2011,08,10,01,11,11.40
2011,08,10,01,12,11.40
2011,08,10,01,13,11.40
2011,08,10,01,14,11.40
2011,08,10,01,15,11.30
2011,08,10,01,16,11.30
2011,08,10,01,17,11.30
2011,08,10,01,18,11.30
2011,08,10,01,19,11.30
2011,08,10,01,20,11.30
2011,08,10,01,21,11.30
2011,08,10,01,22,11.30
2011,08,10,01,23,11.30
2011,08,10,01,24,11.30
2011,08,10,01,25,11.20
2011,08,10,01,26,11.20
2011,08,10,01,27,11.20
2011,08,10,01,28,11.20
2011,08,10,01,29,11.20
2011,08,10,01,30,11.20
2011,08,10,01,31,11.20
2011,08,10,01,32,11.20
2011,08,10,01,33,11.10
2011,08,10,01,34,11.10
2011,08,10,01,35,11.10
2011,08,10,01,36,11.10
2011,08,10,01,37,11.10
2011,08,10,01,38,11.10
2011,08,10,01,39,11.10
2011,08,10,01,40,11.10
2011,08,10,01,41,11.10
2011,08,10,01,42,11.10
2011,08,10,01,43,11.10
2011,08,10,01,44,11.10
2011,08,10,01,45,11.00
2011,08,10,01,46,11.00
2011,08,10,01,47,10.90
2011,08,10,01,48,10.90
2011,08,10,01,49,10.90
2011,08,10,01,50,10.90
2011,08,10,01,51,10.90
2011,08,10,01,52,10.90
2011,08,10,01,53,10.90
2011,08,10,01,54,10.90
2011,08,10,01,55,10.80
2011,08,10,01,56,10.80
2011,08,10,01,57,10.80
2011,08,10,01,58,10.80
2011,08,10,01,59,10.80
2011,08,10,02,00,10.80
2011,08,10,02,01,10.80
2011,08,10,02,02,10.70
2011,08,10,02,03,10.70
2011,08,10,02,04,10.70
2011,08,10,02,05,10.70
2011,08,10,02,06,10.70
2011,08,10,02,07,10.70
2011,08,10,02,08,10.70
2011,08,10,02,09,10.70
2011,08,10,02,10,10.70
2011,08,10,02,11,10.70
2011,08,10,02,12,10.70
2011,08,10,02,13,10.70
2011,08,10,02,14,10.70
2011,08,10,02,15,10.70
2011,08,10,02,16,10.70
2011,08,10,02,17,10.70
2011,08,10,02,18,10.70
2011,08,10,02,19,10.60
2011,08,10,02,20,10.60
2011,08,10,02,21,10.60
2011,08,10,02,22,10.60
2011,08,10,02,23,10.60
2011,08,10,02,24,10.60
2011,08,10,02,25,10.60
2011,08,10,02,26,10.60
2011,08,10,02,27,10.60
2011,08,10,02,28,10.60
2011,08,10,02,29,10.60
2011,08,10,02,30,10.60
2011,08,10,02,31,10.60
2011,08,10,02,32,10.60
2011,08,10,02,33,10.60
2011,08,10,02,34,10.60
2011,08,10,02,35,10.60
2011,08,10,02,36,10.60
2011,08,10,02,37,10.60
2011,08,10,02,38,10.60
2011,08,10,02,39,10.60
2011,08,10,02,40,10.60
2011,08,10,02,41,10.60
2011,08,10,02,42,10.60
2011,08,10,02,43,10.60
2011,08,10,02,44,10.60
2011,08,10,02,45,10.60
2011,08,10,02,46,10.60
2011,08,10,02,47,10.60
2011,08,10,02,48,10.60
2011,08,10,02,49,10.60
2011,08,10,02,50,10.60
2011,08,10,02,51,10.60
2011,08,10,02,52,10.60
2011,08,10,02,53,10.60
2011,08,10,02,54,10.60
2011,08,10,02,55,10.60
2011,08,10,02,56,10.50
2011,08,10,02,57,10.50
2011,08,10,02,58,10.40
2011,08,10,02,59,10.40
2011,08,10,03,00,10.40
2011,08,10,03,01,10.40
2011,08,10,03,02,10.50
2011,08,10,03,03,10.60
2011,08,10,03,04,10.60
2011,08,10,03,05,10.60
2011,08,10,03,06,10.60
2011,08,10,03,07,10.60
2011,08,10,03,08,10.60
2011,08,10,03,09,10.60
2011,08,10,03,10,10.60
2011,08,10,03,11,10.60
2011,08,10,03,12,10.60
2011,08,10,03,13,10.50
2011,08,10,03,14,10.40
2011,08,10,03,15,10.40
2011,08,10,03,16,10.40
2011,08,10,03,17,10.40
2011,08,10,03,18,10.40
2011,08,10,03,19,10.40
2011,08,10,03,20,10.40
2011,08,10,03,21,10.40
2011,08,10,03,22,10.40
2011,08,10,03,23,10.40
2011,08,10,03,24,10.40
2011,08,10,03,25,10.40
2011,08,10,03,26,10.40
2011,08,10,03,27,10.50
2011,08,10,03,28,10.60
2011,08,10,03,29,10.60
2011,08,10,03,30,10.60
2011,08,10,03,31,10.60
2011,08,10,03,32,10.60
2011,08,10,03,33,10.60
2011,08,10,03,34,10.60
2011,08,10,03,35,10.60
2011,08,10,03,36,10.60
2011,08,10,03,37,10.60
2011,08,10,03,38,10.50
2011,08,10,03,39,10.40
2011,08,10,03,40,10.40
2011,08,10,03,41,10.40
2011,08,10,03,42,10.40
2011,08,10,03,43,10.40
2011,08,10,03,44,10.40
2011,08,10,03,45,10.40
2011,08,10,03,46,10.40
2011,08,10,03,47,10.40
2011,08,10,03,48,10.40
2011,08,10,03,49,10.40
2011,08,10,03,50,10.40
2011,08,10,03,51,10.30
2011,08,10,03,52,10.30
2011,08,10,03,53,10.30
2011,08,10,03,54,10.30
2011,08,10,03,55,10.30
2011,08,10,03,56,10.20
2011,08,10,03,57,10.20
2011,08,10,03,58,10.20
2011,08,10,03,59,10.20
2011,08,10,04,00,10.20
2011,08,10,04,01,10.20
2011,08,10,04,02,10.20
2011,08,10,04,03,10.20
2011,08,10,04,04,10.10
2011,08,10,04,05,10.20
2011,08,10,04,06,10.20
2011,08,10,04,07,10.10
2011,08,10,04,08,10.10
2011,08,10,04,09,10.10
2011,08,10,04,10,10.10
2011,08,10,04,11,10.10
2011,08,10,04,12,10.10
2011,08,10,04,13,10.10
2011,08,10,04,14,10.00
2011,08,10,04,15,9.90
2011,08,10,04,16,9.90
2011,08,10,04,17,9.90
2011,08,10,04,18,9.90
2011,08,10,04,19,9.90
2011,08,10,04,20,9.90
2011,08,10,04,21,9.90
2011,08,10,04,22,9.90
2011,08,10,04,23,9.90
2011,08,10,04,24,9.90
2011,08,10,04,25,9.80
2011,08,10,04,26,9.80
2011,08,10,04,27,9.80
2011,08,10,04,28,9.80
2011,08,10,04,29,9.80
2011,08,10,04,30,9.80
2011,08,10,04,31,9.80
2011,08,10,04,32,9.80
2011,08,10,04,33,9.70
2011,08,10,04,34,9.70
2011,08,10,04,35,9.70
2011,08,10,04,36,9.70
2011,08,10,04,37,9.70
2011,08,10,04,38,9.70
2011,08,10,04,39,9.70
2011,08,10,04,40,9.70
2011,08,10,04,41,9.70
2011,08,10,04,42,9.70
2011,08,10,04,43,9.70
2011,08,10,04,44,9.70
2011,08,10,04,45,9.70
2011,08,10,04,46,9.70
2011,08,10,04,47,9.70
2011,08,10,04,48,9.60
2011,08,10,04,49,9.60
2011,08,10,04,50,9.60
2011,08,10,04,51,9.60
2011,08,10,04,52,9.60
2011,08,10,04,53,9.60
2011,08,10,04,54,9.60
2011,08,10,04,55,9.60
2011,08,10,04,56,9.60
2011,08,10,04,57,9.60
2011,08,10,04,58,9.50
2011,08,10,04,59,9.50
2011,08,10,05,00,9.50
2011,08,10,05,01,9.50
2011,08,10,05,02,9.50
2011,08,10,05,03,9.50
2011,08,10,05,04,9.50
2011,08,10,05,05,9.50
2011,08,10,05,06,9.50
2011,08,10,05,07,9.50
2011,08,10,05,08,9.50
2011,08,10,05,09,9.50
2011,08,10,05,10,9.50
2011,08,10,05,11,9.50
2011,08,10,05,12,9.50
2011,08,10,05,13,9.50
2011,08,10,05,14,9.50
2011,08,10,05,15,9.50
2011,08,10,05,16,9.50
2011,08,10,05,17,9.50
2011,08,10,05,18,9.50
2011,08,10,05,19,9.50
2011,08,10,05,20,9.50
2011,08,10,05,21,9.50
2011,08,10,05,22,9.50
2011,08,10,05,23,9.50
2011,08,10,05,24,9.50
2011,08,10,05,25,9.50
2011,08,10,05,26,9.50
2011,08,10,05,27,9.50
2011,08,10,05,28,9.50
2011,08,10,05,29,9.50
2011,08,10,05,30,9.60
2011,08,10,05,31,9.60
2011,08,10,05,32,9.60
2011,08,10,05,33,9.60
2011,08,10,05,34,9.60
2011,08,10,05,35,9.60
2011,08,10,05,36,9.60
2011,08,10,05,37,9.60
2011,08,10,05,38,9.60
2011,08,10,05,39,9.70
2011,08,10,05,40,9.70
2011,08,10,05,41,9.70
2011,08,10,05,42,9.70
2011,08,10,05,43,9.70
2011,08,10,05,44,9.70
2011,08,10,05,45,9.70
2011,08,10,05,46,9.70
2011,08,10,05,47,9.70
2011,08,10,05,48,9.70
2011,08,10,05,49,9.70
2011,08,10,05,50,9.70
2011,08,10,05,51,9.70
2011,08,10,05,52,9.70
2011,08,10,05,53,9.70
2011,08,10,05,54,9.70
2011,08,10,05,55,9.70
2011,08,10,05,56,9.70
2011,08,10,05,57,9.60
2011,08,10,05,58,9.60
2011,08,10,05,59,9.60
2011,08,10,06,00,9.60
2011,08,10,06,01,9.60
2011,08,10,06,02,9.60
2011,08,10,06,03,9.60
2011,08,10,06,04,9.60
2011,08,10,06,05,9.60
2011,08,10,06,06,9.60
2011,08,10,06,07,9.60
2011,08,10,06,08,9.60
2011,08,10,06,09,9.60
2011,08,10,06,10,9.60
2011,08,10,06,11,9.70
2011,08,10,06,12,9.60
2011,08,10,06,13,9.60
2011,08,10,06,14,9.60
2011,08,10,06,15,9.60
2011,08,10,06,16,9.60
2011,08,10,06,17,9.60
2011,08,10,06,18,9.60
2011,08,10,06,19,9.60
2011,08,10,06,20,9.60
2011,08,10,06,21,9.60
2011,08,10,06,22,9.60
2011,08,10,06,23,9.60
2011,08,10,06,24,9.60
2011,08,10,06,25,9.60
2011,08,10,06,26,9.60
2011,08,10,06,27,9.60
2011,08,10,06,28,9.50
2011,08,10,06,29,9.50
2011,08,10,06,30,9.50
2011,08,10,06,31,9.50
2011,08,10,06,32,9.50
2011,08,10,06,33,9.50
2011,08,10,06,34,9.50
2011,08,10,06,35,9.50
2011,08,10,06,36,9.50
2011,08,10,06,37,9.50
2011,08,10,06,38,9.50
2011,08,10,06,39,9.50
2011,08,10,06,40,9.50
2011,08,10,06,41,9.50
2011,08,10,06,42,9.50
2011,08,10,06,43,9.60
2011,08,10,06,44,9.60
2011,08,10,06,45,9.60
2011,08,10,06,46,9.60
2011,08,10,06,47,9.60
2011,08,10,06,48,9.60
2011,08,10,06,49,9.60
2011,08,10,06,50,9.70
2011,08,10,06,51,9.70
2011,08,10,06,52,9.70
2011,08,10,06,53,9.70
2011,08,10,06,54,9.70
2011,08,10,06,55,9.70
2011,08,10,06,56,9.70
2011,08,10,06,57,9.70
2011,08,10,06,58,9.70
2011,08,10,06,59,9.70
2011,08,10,07,00,9.70
2011,08,10,07,01,9.70
2011,08,10,07,02,9.70
2011,08,10,07,03,9.70
2011,08,10,07,04,9.70
2011,08,10,07,05,9.70
2011,08,10,07,06,9.80
2011,08,10,07,07,9.80
2011,08,10,07,08,9.80
2011,08,10,07,09,9.80
2011,08,10,07,10,9.80
2011,08,10,07,11,9.80
2011,08,10,07,12,9.80
2011,08,10,07,13,9.80
2011,08,10,07,14,9.80
2011,08,10,07,15,9.80
2011,08,10,07,16,9.80
2011,08,10,07,17,9.80
2011,08,10,07,18,9.90
2011,08,10,07,19,9.90
2011,08,10,07,20,9.90
2011,08,10,07,21,9.90
2011,08,10,07,22,9.90
2011,08,10,07,23,9.90
2011,08,10,07,24,9.90
2011,08,10,07,25,9.90
2011,08,10,07,26,9.90
2011,08,10,07,27,9.90
2011,08,10,07,28,9.90
2011,08,10,07,29,9.90
2011,08,10,07,30,9.90
2011,08,10,07,31,9.90
2011,08,10,07,32,9.90
2011,08,10,07,33,9.90
2011,08,10,07,34,9.90
2011,08,10,07,35,10.00
2011,08,10,07,36,10.10
2011,08,10,07,37,10.10
2011,08,10,07,38,10.10
2011,08,10,07,39,10.10
2011,08,10,07,40,10.10
2011,08,10,07,41,10.10
2011,08,10,07,42,10.10
2011,08,10,07,43,10.20
2011,08,10,07,44,10.20
2011,08,10,07,45,10.20
2011,08,10,07,46,10.20
2011,08,10,07,47,10.20
2011,08,10,07,48,10.30
2011,08,10,07,49,10.30
2011,08,10,07,50,10.30
2011,08,10,07,51,10.40
2011,08,10,07,52,10.40
2011,08,10,07,53,10.40
2011,08,10,07,54,10.40
2011,08,10,07,55,10.60
2011,08,10,07,56,10.60
2011,08,10,07,57,10.60
2011,08,10,07,58,10.60
2011,08,10,07,59,10.60
2011,08,10,08,00,10.70
2011,08,10,08,01,10.70
2011,08,10,08,02,10.80
2011,08,10,08,03,10.80
2011,08,10,08,04,10.90
2011,08,10,08,05,10.90
2011,08,10,08,06,10.90
2011,08,10,08,07,11.10
2011,08,10,08,08,11.10
2011,08,10,08,09,11.10
2011,08,10,08,10,11.20
2011,08,10,08,11,11.30
2011,08,10,08,12,11.40
2011,08,10,08,13,11.50
2011,08,10,08,14,11.60
2011,08,10,08,15,11.60
2011,08,10,08,16,11.70
2011,08,10,08,17,11.80
2011,08,10,08,18,11.80
2011,08,10,08,19,11.90
2011,08,10,08,20,12.00
2011,08,10,08,21,12.00
2011,08,10,08,22,12.10
2011,08,10,08,23,12.20
2011,08,10,08,24,12.30
2011,08,10,08,25,12.30
2011,08,10,08,26,12.30
2011,08,10,08,27,12.40
2011,08,10,08,28,12.50
2011,08,10,08,29,12.50
2011,08,10,08,30,12.60
2011,08,10,08,31,12.60
2011,08,10,08,32,12.70
2011,08,10,08,33,12.70
2011,08,10,08,34,12.80
2011,08,10,08,35,12.80
2011,08,10,08,36,12.90
2011,08,10,08,37,12.90
2011,08,10,08,38,13.00
2011,08,10,08,39,13.10
2011,08,10,08,40,13.10
2011,08,10,08,41,13.20
2011,08,10,08,42,13.20
2011,08,10,08,43,13.30
2011,08,10,08,44,13.30
2011,08,10,08,45,13.30
2011,08,10,08,46,13.40
2011,08,10,08,47,13.50
2011,08,10,08,48,13.50
2011,08,10,08,49,13.60
2011,08,10,08,50,13.60
2011,08,10,08,51,13.70
2011,08,10,08,52,13.70
2011,08,10,08,53,13.70
2011,08,10,08,54,13.80
2011,08,10,08,55,13.90
2011,08,10,08,56,13.90
2011,08,10,08,57,14.00
2011,08,10,08,58,14.00
2011,08,10,08,59,14.10
2011,08,10,09,00,14.20
2011,08,10,09,01,14.20
2011,08,10,09,02,14.30
2011,08,10,09,03,14.30
2011,08,10,09,04,14.40
2011,08,10,09,05,14.50
2011,08,10,09,06,14.50
2011,08,10,09,07,14.60
2011,08,10,09,08,14.70
2011,08,10,09,09,14.70
2011,08,10,09,10,14.80
2011,08,10,09,11,14.80
2011,08,10,09,12,14.80
2011,08,10,09,13,14.90
2011,08,10,09,14,15.00
2011,08,10,09,15,15.00
2011,08,10,09,16,15.00
2011,08,10,09,17,15.10
2011,08,10,09,18,15.10
2011,08,10,09,19,15.10
2011,08,10,09,20,15.10
2011,08,10,09,21,15.20
2011,08,10,09,22,15.20
2011,08,10,09,23,15.20
2011,08,10,09,24,15.30
2011,08,10,09,25,15.30
2011,08,10,09,26,15.30
2011,08,10,09,27,15.30
2011,08,10,09,28,15.30
2011,08,10,09,29,15.30
2011,08,10,09,30,15.30
2011,08,10,09,31,15.30
2011,08,10,09,32,15.30
2011,08,10,09,33,15.30
2011,08,10,09,34,15.30
2011,08,10,09,35,15.30
2011,08,10,09,36,15.30
2011,08,10,09,37,15.30
2011,08,10,09,38,15.30
2011,08,10,09,39,15.30
2011,08,10,09,40,15.30
2011,08,10,09,41,15.30
2011,08,10,09,42,15.40
2011,08,10,09,43,15.40
2011,08,10,09,44,15.40
2011,08,10,09,45,15.40
2011,08,10,09,46,15.40
2011,08,10,09,47,15.40
2011,08,10,09,48,15.40
2011,08,10,09,49,15.50
2011,08,10,09,50,15.50
2011,08,10,09,51,15.50
2011,08,10,09,52,15.50
2011,08,10,09,53,15.50
2011,08,10,09,54,15.50
2011,08,10,09,55,15.50
2011,08,10,09,56,15.60
2011,08,10,09,57,15.60
2011,08,10,09,58,15.60
2011,08,10,09,59,15.60
2011,08,10,10,00,15.60
2011,08,10,10,01,15.70
2011,08,10,10,02,15.70
2011,08,10,10,03,15.70
2011,08,10,10,04,15.70
2011,08,10,10,05,15.70
2011,08,10,10,06,15.70
2011,08,10,10,07,15.80
2011,08,10,10,08,15.80
2011,08,10,10,09,15.80
2011,08,10,10,10,15.80
2011,08,10,10,11,15.80
2011,08,10,10,12,15.80
2011,08,10,10,13,15.80
2011,08,10,10,14,15.80
2011,08,10,10,15,15.80
2011,08,10,10,16,15.80
2011,08,10,10,17,15.80
2011,08,10,10,18,15.80
2011,08,10,10,19,15.80
2011,08,10,10,20,15.80
2011,08,10,10,21,15.90
2011,08,10,10,22,15.90
2011,08,10,10,23,15.90
2011,08,10,10,24,15.90
2011,08,10,10,25,15.90
2011,08,10,10,26,15.90
2011,08,10,10,27,15.90
2011,08,10,10,28,15.90
2011,08,10,10,29,15.90
2011,08,10,10,30,15.90
2011,08,10,10,31,16.00
2011,08,10,10,32,16.10
2011,08,10,10,33,16.10
2011,08,10,10,34,16.10
2011,08,10,10,35,16.10
2011,08,10,10,36,16.10
2011,08,10,10,37,16.10
2011,08,10,10,38,16.10
2011,08,10,10,39,16.20
2011,08,10,10,40,16.20
2011,08,10,10,41,16.20
2011,08,10,10,42,16.20
2011,08,10,10,43,16.20
2011,08,10,10,44,16.20
2011,08,10,10,45,16.20
2011,08,10,10,46,16.30
2011,08,10,10,47,16.30
2011,08,10,10,48,16.30
2011,08,10,10,49,16.30
2011,08,10,10,50,16.30
2011,08,10,10,51,16.30
2011,08,10,10,52,16.30
2011,08,10,10,53,16.30
2011,08,10,10,54,16.30
2011,08,10,10,55,16.30
2011,08,10,10,56,16.40
2011,08,10,10,57,16.40
2011,08,10,10,58,16.40
2011,08,10,10,59,16.40
2011,08,10,11,00,16.40
2011,08,10,11,01,16.40
2011,08,10,11,02,16.40
2011,08,10,11,03,16.40
2011,08,10,11,04,16.40
2011,08,10,11,05,16.40
2011,08,10,11,06,16.40
2011,08,10,11,07,16.40
2011,08,10,11,08,16.40
2011,08,10,11,09,16.40
2011,08,10,11,10,16.40
2011,08,10,11,11,16.40
2011,08,10,11,12,16.40
2011,08,10,11,13,16.50
2011,08,10,11,14,16.60
2011,08,10,11,15,16.60
2011,08,10,11,16,16.60
2011,08,10,11,17,16.60
2011,08,10,11,18,16.60
2011,08,10,11,19,16.70
2011,08,10,11,20,16.70
2011,08,10,11,21,16.70
2011,08,10,11,22,16.70
2011,08,10,11,23,16.70
2011,08,10,11,24,16.70
2011,08,10,11,25,16.80
2011,08,10,11,26,16.80
2011,08,10,11,27,16.80
2011,08,10,11,28,16.80
2011,08,10,11,29,16.80
2011,08,10,11,30,16.80
2011,08,10,11,31,16.90
2011,08,10,11,32,16.90
2011,08,10,11,33,16.90
2011,08,10,11,34,16.90
2011,08,10,11,35,16.90
2011,08,10,11,36,16.90
2011,08,10,11,37,16.90
2011,08,10,11,38,16.90
2011,08,10,11,39,16.90
2011,08,10,11,40,16.90
2011,08,10,11,41,16.90
2011,08,10,11,42,16.90
2011,08,10,11,43,16.90
2011,08,10,11,44,16.90
2011,08,10,11,45,17.00
2011,08,10,11,46,17.00
2011,08,10,11,47,17.00
2011,08,10,11,48,17.10
2011,08,10,11,49,17.10
2011,08,10,11,50,17.20
2011,08,10,11,51,17.20
2011,08,10,11,52,17.30
2011,08,10,11,53,17.30
2011,08,10,11,54,17.30
2011,08,10,11,55,17.30
2011,08,10,11,56,17.40
2011,08,10,11,57,17.40
2011,08,10,11,58,17.50
2011,08,10,11,59,17.50
2011,08,10,12,00,17.60
2011,08,10,12,01,17.60
2011,08,10,12,02,17.70
2011,08,10,12,03,17.70
2011,08,10,12,04,17.70
2011,08,10,12,05,17.70
2011,08,10,12,06,17.80
2011,08,10,12,07,17.80
2011,08,10,12,08,17.80
2011,08,10,12,09,17.80
2011,08,10,12,10,17.80
2011,08,10,12,11,17.80
2011,08,10,12,12,17.80
2011,08,10,12,13,17.80
2011,08,10,12,14,17.80
2011,08,10,12,15,17.80
2011,08,10,12,16,17.80
2011,08,10,12,17,17.80
2011,08,10,12,18,17.80
2011,08,10,12,19,17.80
2011,08,10,12,20,17.90
2011,08,10,12,21,17.90
2011,08,10,12,22,17.90
2011,08,10,12,23,17.90
2011,08,10,12,24,17.90
2011,08,10,12,25,17.90
2011,08,10,12,26,17.90
2011,08,10,12,27,17.90
2011,08,10,12,28,17.90
2011,08,10,12,29,17.90
2011,08,10,12,30,17.90
2011,08,10,12,31,17.90
2011,08,10,12,32,17.90
2011,08,10,12,33,17.90
2011,08,10,12,34,17.90
2011,08,10,12,35,17.90
2011,08,10,12,36,17.90
2011,08,10,12,37,18.00
2011,08,10,12,38,18.00
2011,08,10,12,39,18.00
2011,08,10,12,40,18.00
2011,08,10,12,41,18.00
2011,08,10,12,42,18.10
2011,08,10,12,43,18.10
2011,08,10,12,44,18.10
2011,08,10,12,45,18.10
2011,08,10,12,46,18.10
2011,08,10,12,47,18.10
2011,08,10,12,48,18.10
2011,08,10,12,49,18.20
2011,08,10,12,50,18.20
2011,08,10,12,51,18.20
2011,08,10,12,52,18.20
2011,08,10,12,53,18.20
2011,08,10,12,54,18.20
2011,08,10,12,55,18.20
2011,08,10,12,56,18.20
2011,08,10,12,57,18.20
2011,08,10,12,58,18.10
2011,08,10,12,59,18.10
2011,08,10,13,00,18.10
2011,08,10,13,01,18.10
2011,08,10,13,02,18.00
2011,08,10,13,03,17.90
2011,08,10,13,04,17.90
2011,08,10,13,05,17.90
2011,08,10,13,06,17.90
2011,08,10,13,07,17.90
2011,08,10,13,08,17.90
2011,08,10,13,09,17.90
2011,08,10,13,10,17.90
2011,08,10,13,11,17.90
2011,08,10,13,12,17.90
2011,08,10,13,13,17.90
2011,08,10,13,14,17.80
2011,08,10,13,15,17.90
2011,08,10,13,16,17.90
2011,08,10,13,17,17.90
2011,08,10,13,18,17.90
2011,08,10,13,19,17.90
2011,08,10,13,20,17.90
2011,08,10,13,21,17.90
2011,08,10,13,22,17.80
2011,08,10,13,23,17.80
2011,08,10,13,24,17.80
2011,08,10,13,25,17.80
2011,08,10,13,26,17.80
2011,08,10,13,27,17.80
2011,08,10,13,28,17.70
2011,08,10,13,29,17.70
2011,08,10,13,30,17.70
2011,08,10,13,31,17.70
2011,08,10,13,32,17.70
2011,08,10,13,33,17.70
2011,08,10,13,34,17.70
2011,08,10,13,35,17.70
2011,08,10,13,36,17.70
2011,08,10,13,37,17.70
2011,08,10,13,38,17.70
2011,08,10,13,39,17.70
2011,08,10,13,40,17.70
2011,08,10,13,41,17.70
2011,08,10,13,42,17.70
2011,08,10,13,43,17.80
2011,08,10,13,44,17.80
2011,08,10,13,45,17.80
2011,08,10,13,46,17.90
2011,08,10,13,47,17.90
2011,08,10,13,48,17.90
2011,08,10,13,49,18.00
2011,08,10,13,50,18.10
2011,08,10,13,51,18.10
2011,08,10,13,52,18.10
2011,08,10,13,53,18.20
2011,08,10,13,54,18.20
2011,08,10,13,55,18.20
2011,08,10,13,56,18.20
2011,08,10,13,57,18.20
2011,08,10,13,58,18.20
2011,08,10,13,59,18.20
2011,08,10,14,00,18.20
2011,08,10,14,01,18.20
2011,08,10,14,02,18.20
2011,08,10,14,03,18.10
2011,08,10,14,04,18.10
2011,08,10,14,05,18.10
2011,08,10,14,06,18.10
2011,08,10,14,07,18.10
2011,08,10,14,08,18.10
2011,08,10,14,09,18.10
2011,08,10,14,10,18.10
2011,08,10,14,11,18.20
2011,08,10,14,12,18.20
2011,08,10,14,13,18.20
2011,08,10,14,14,18.20
2011,08,10,14,15,18.20
2011,08,10,14,16,18.20
2011,08,10,14,17,18.20
2011,08,10,14,18,18.20
2011,08,10,14,19,18.20
2011,08,10,14,20,18.20
2011,08,10,14,21,18.20
2011,08,10,14,22,18.20
2011,08,10,14,23,18.20
2011,08,10,14,24,18.20
2011,08,10,14,25,18.20
2011,08,10,14,26,18.20
2011,08,10,14,27,18.20
2011,08,10,14,28,18.20
2011,08,10,14,29,18.20
2011,08,10,14,30,18.20
2011,08,10,14,31,18.20
2011,08,10,14,32,18.20
2011,08,10,14,33,18.20
2011,08,10,14,34,18.20
2011,08,10,14,35,18.20
2011,08,10,14,36,18.20
2011,08,10,14,37,18.20
2011,08,10,14,38,18.20
2011,08,10,14,39,18.20
2011,08,10,14,40,18.20
2011,08,10,14,41,18.30
2011,08,10,14,42,18.30
2011,08,10,14,43,18.30
2011,08,10,14,44,18.30
2011,08,10,14,45,18.30
2011,08,10,14,46,18.30
2011,08,10,14,47,18.30
2011,08,10,14,48,18.30
2011,08,10,14,49,18.30
2011,08,10,14,50,18.30
2011,08,10,14,51,18.40
2011,08,10,14,52,18.40
2011,08,10,14,53,18.40
2011,08,10,14,54,18.40
2011,08,10,14,55,18.40
2011,08,10,14,56,18.40
2011,08,10,14,57,18.40
2011,08,10,14,58,18.50
2011,08,10,14,59,18.50
2011,08,10,15,00,18.50
2011,08,10,15,01,18.60
2011,08,10,15,02,18.60
2011,08,10,15,03,18.60
2011,08,10,15,04,18.70
2011,08,10,15,05,18.80
2011,08,10,15,06,18.80
2011,08,10,15,07,18.80
2011,08,10,15,08,18.90
2011,08,10,15,09,18.90
2011,08,10,15,10,18.90
2011,08,10,15,11,18.90
2011,08,10,15,12,18.90
2011,08,10,15,13,19.10
2011,08,10,15,14,19.10
2011,08,10,15,15,19.10
2011,08,10,15,16,19.10
2011,08,10,15,17,19.20
2011,08,10,15,18,19.20
2011,08,10,15,19,19.30
2011,08,10,15,20,19.40
2011,08,10,15,21,19.50
2011,08,10,15,22,19.60
2011,08,10,15,23,19.60
2011,08,10,15,24,19.70
2011,08,10,15,25,19.70
2011,08,10,15,26,19.70
2011,08,10,15,27,19.80
2011,08,10,15,28,19.90
2011,08,10,15,29,19.90
2011,08,10,15,30,20.00
2011,08,10,15,31,20.10
2011,08,10,15,32,20.20
2011,08,10,15,33,20.20
2011,08,10,15,34,20.20
2011,08,10,15,35,20.20
2011,08,10,15,36,20.20
2011,08,10,15,37,20.30
2011,08,10,15,38,20.30
2011,08,10,15,39,20.40
2011,08,10,15,40,20.50
2011,08,10,15,41,20.50
2011,08,10,15,42,20.60
2011,08,10,15,43,20.60
2011,08,10,15,44,20.70
2011,08,10,15,45,20.70
2011,08,10,15,46,20.70
2011,08,10,15,47,20.70
2011,08,10,15,48,20.80
2011,08,10,15,49,20.80
2011,08,10,15,50,20.80
2011,08,10,15,51,20.80
2011,08,10,15,52,20.70
2011,08,10,15,53,20.70
2011,08,10,15,54,20.70
2011,08,10,15,55,20.60
2011,08,10,15,56,20.60
2011,08,10,15,57,20.60
2011,08,10,15,58,20.60
2011,08,10,15,59,20.50
2011,08,10,16,00,20.40
2011,08,10,16,01,20.30
2011,08,10,16,02,20.30
2011,08,10,16,03,20.20
2011,08,10,16,04,20.20
2011,08,10,16,05,20.20
2011,08,10,16,06,20.20
2011,08,10,16,07,20.10
2011,08,10,16,08,20.10
2011,08,10,16,09,20.00
2011,08,10,16,10,19.90
2011,08,10,16,11,19.90
2011,08,10,16,12,19.90
2011,08,10,16,13,19.90
2011,08,10,16,14,19.80
2011,08,10,16,15,19.80
2011,08,10,16,16,19.80
2011,08,10,16,17,19.80
2011,08,10,16,18,19.70
2011,08,10,16,19,19.70
2011,08,10,16,20,19.60
2011,08,10,16,21,19.60
2011,08,10,16,22,19.60
2011,08,10,16,23,19.60
2011,08,10,16,24,19.60
2011,08,10,16,25,19.60
2011,08,10,16,26,19.60
2011,08,10,16,27,19.60
2011,08,10,16,28,19.60
2011,08,10,16,29,19.60
2011,08,10,16,30,19.60
2011,08,10,16,31,19.60
2011,08,10,16,32,19.60
2011,08,10,16,33,19.60
2011,08,10,16,34,19.60
2011,08,10,16,35,19.60
2011,08,10,16,36,19.50
2011,08,10,16,37,19.40
2011,08,10,16,38,19.40
2011,08,10,16,39,19.40
2011,08,10,16,40,19.40
2011,08,10,16,41,19.30
2011,08,10,16,42,19.30
2011,08,10,16,43,19.30
2011,08,10,16,44,19.30
2011,08,10,16,45,19.30
2011,08,10,16,46,19.30
2011,08,10,16,47,19.30
2011,08,10,16,48,19.30
2011,08,10,16,49,19.20
2011,08,10,16,50,19.20
2011,08,10,16,51,19.20
2011,08,10,16,52,19.20
2011,08,10,16,53,19.20
2011,08,10,16,54,19.20
2011,08,10,16,55,19.20
2011,08,10,16,56,19.30
2011,08,10,16,57,19.30
2011,08,10,16,58,19.30
2011,08,10,16,59,19.40
2011,08,10,17,00,19.50
2011,08,10,17,01,19.50
2011,08,10,17,02,19.60
2011,08,10,17,03,19.60
2011,08,10,17,04,19.70
2011,08,10,17,05,19.70
2011,08,10,17,06,19.70
2011,08,10,17,07,19.80
2011,08,10,17,08,19.80
2011,08,10,17,09,19.80
2011,08,10,17,10,19.90
2011,08,10,17,11,19.90
2011,08,10,17,12,19.90
2011,08,10,17,13,19.90
2011,08,10,17,14,19.90
2011,08,10,17,15,19.90
2011,08,10,17,16,19.90
2011,08,10,17,17,19.90
2011,08,10,17,18,19.90
2011,08,10,17,19,19.90
2011,08,10,17,20,19.90
2011,08,10,17,21,19.90
2011,08,10,17,22,19.90
2011,08,10,17,23,19.90
2011,08,10,17,24,19.90
2011,08,10,17,25,19.90
2011,08,10,17,26,19.90
2011,08,10,17,27,19.90
2011,08,10,17,28,19.90